COSMOS 1088

Satellite information

Favourite Embed

Satellite Type and Status

PAYLOADIN ORBIT

Key statistics

Satellite COSMOS 1088 at a glance.

Uptime

16917

Days in orbit

Revolutions

≈ 12.4

Per day

Orbit

LEO

Low Earth Orbit

Inclination

74.0

Latest

Satellite identification and parameters

Extended collection of information and parameters for COSMOS 1088.

Object identification

Identified? True

Debris? False

Object name: COSMOS 1088

International designator: 1979-024H

Object number (NORAD): 11303

Object ID (CCSDS): 11303

Country: COMMONWEALTH OF INDEPENDENT STATES (CIS)

Current information (Y/N): Y

RCS size: MEDIUM

Orbital parameters

Period: 116.115 minutes

Inclination: 74.0335 deg

SMA: 7884.082 km

Apoapsis: 1546.529 km

Periapsis: 1465.366 km

RAAN: 124.1874 deg

Eccentricy: 0.0051473

Argument of periapsis: 141.7549 deg

Mean anomaly: 283.3595 deg

Mean motion: 12.40155168 rev/day

Mean motion (dot): -0.00000029 rev/day2

B* drag term: -0.00010562 1/REarth

Two-line elements (TLE)

Creation date: July 8, 2025, 2:27 a.m.

Reference frame: TEME

Reference center: EARTH

Epoch: July 7, 2025, 10:36 p.m. UTC

TLE line 0: 0 COSMOS 1088

TLE line 1: 1 11303U 79024H 25188.94217655 -.00000029 00000-0 -10562-3 0 9993

TLE line 2: 2 11303 74.0335 124.1874 0051473 141.7549 283.3595 12.40155168 96801

Live tracking on map

Real-time ground track for satellite COSMOS 1088.

In-orbit conjunctions

A list of the most updated potential collisions computed for object COSMOS 1088.

Target Orbit TCA Probability of collision Miss distance Type
COSMOS 1823 DEB LEO 2025-02-18 20:17:10 0.0008748569 162.0 (m) DEBRIS
DELTA 1 DEB SSO 2024-07-02 05:16:21 0.0001632309 709.0 (m) DEBRIS

Associated space launch

Military communications satellites

COSMOS 1088 was lifted into orbit during the mission ‘Kosmos-3M | Strela-1M 169-176’, on board a Kosmos-3M space rocket.

The launch took place on March 15, 1979, 2:58 a.m. from 132/2.

For more information about the launch, click the button.

Launch to space Kosmos-3M | Strela-1M 169-176
Kosmos-3M | Strela-1M 169-176

Agency: N/A

Status: Launch Successful

Launch date: March 15, 1979, 2:58 a.m. UTC

Rocket: Kosmos-3M

Launch pad: 132/2

Location: Plesetsk Cosmodrome, Russian Federation

...

Latest news about this satellite

There are no fresh news available about this satellite. Check back as we update our databases every day.


Newsletter sign-up

Weekly statistics, charts and insights to help you stay on top of the space industry.